[[{"header":{"parameterUnit":"m.s-1","parameterCategory":1,"la1":30.2991,"la2":30.254,"lo1":-89.0895,"lo2":-89.0444,"dy":0.0017,"dx":0.0017,"nx":28,"ny":28,"refTime":"2025-08-14T09:00:00:Z","depth":0,"parameterNumber":2,"parameterNumberName":"U-component_of_WINDS"},"data":[0,0,0,0,0,0,0,0,0,0,0,0,0,0,0,0,0,0,0,0,0,0,0,0,0,0,0,0,0,0,0,0,0,0,0,0,0,0,0,0,0,0,0,0,0,0,0,0,0,0,0,0,0,0,0,0,0,0,0.5604,0.5606,0,0.575,0.5752,0.5753,0.5753,0.5751,0.5749,0.5747,0.5906,0.5911,0.5917,0,0,0,0,0,0,0,0,0,0,0,0,0,0.5334,0.5339,0.5604,0.5606,0.5608,0.575,0.5752,0.5754,0.5753,0.5751,0.5749,0.5747,0.5904,0.5911,0.5918,0,0,0,0,0,0,0,0,0,0,0,0,0,0.5463,0.5341,0.5604,0.5624,0.5628,0.5749,0.5752,0.5754,0.5754,0.5751,0.5748,0.5745,0.5901,0.591,0.5919,0.6032,0,0,0.5946,0.595,0,0,0,0,0,0,0,0,0.5456,0.5473,0.5619,0.5623,0.5627,0.573,0.5715,0.5848,0.5755,0.5706,0.5747,0.5744,0.585,0.5863,0.5897,0.604,0.6046,0.5947,0.5953,0.5956,0.5959,0,0,0,0,0,0,0,0.5447,0.5467,0.5662,0.5622,0.5626,0.5629,0.5645,0.574,0.5793,0.571,0.5711,0.5727,0.5852,0.5888,0.5901,0.6049,0.5947,0.5955,0.596,0.5964,0.6296,0.6299,0,0,0,0,0,0,0.5432,0.5459,0.5657,0.5666,0.5532,0.5637,0.5653,0.57,0.5792,0.5803,0.573,0.5727,0.5874,0.589,0.5906,0.6048,0.5956,0.5965,0.597,0.6293,0.6297,0.6301,0,0,0,0,0,0,0.5427,0.545,0.5651,0.5563,0.5589,0.5644,0.5697,0.5705,0.5741,0.5806,0.5817,0.5757,0.5873,0.5894,0.6001,0.6054,0.5969,0.5977,0.6289,0.6294,0.6299,0.6331,0,0,0,0,0,0,0.5419,0.5448,0.5489,0.5564,0.5593,0.5741,0.57,0.571,0.5756,0.5753,0.5835,0.5846,0.5872,0.5988,0.601,0.6065,0.5984,0.6284,0.6291,0.6297,0.6326,0.6337,0.6346,0,0,0,0,0,0.5409,0.5494,0.5491,0.5515,0.5646,0.5744,0.5761,0.5788,0.576,0.5804,0.5846,0.5843,0.6043,0.5999,0.6024,0.6082,0.6281,0.6289,0.6297,0.6321,0.6334,0.6346,0,0,0,0,0,0,0.5427,0.5504,0.5502,0.5612,0.5671,0.5744,0.58,0.5801,0.5871,0.5866,0.5899,0.5917,0.6025,0.6064,0.6013,0.6199,0.616,0.6173,0.6169,0.6183,0.6193,0.6183,0.5992,0,0,0,0,0,0.5443,0.5513,0.5578,0.5669,0.5698,0.5744,0.5788,0.5803,0.5866,0.5892,0.5942,0.6007,0.6085,0.6135,0.621,0.633,0.6351,0.6383,0.6393,0.6401,0.6413,0.6483,0.65,0.6326,0.6326,0.6326,0,0,0.5478,0.5529,0.5572,0.5674,0.5721,0.5797,0.5765,0.5846,0.5903,0.5905,0.601,0.6049,0.6123,0.6238,0.6292,0.6274,0.6465,0.6411,0.6417,0.6425,0.6493,0.651,0.6524,0.6331,0.633,0.6329,0,0,0.5581,0.5625,0.5707,0.5755,0.5827,0.5856,0.5876,0.5949,0.5974,0.6079,0.6083,0.6153,0.6285,0.6339,0.6384,0.6509,0.6511,0.6533,0.6587,0.6655,0.6669,0.6682,0.673,0.6746,0.6544,0.6544,0.6544,0,0.5617,0.5728,0.575,0.5832,0.5878,0.5881,0.5967,0.6013,0.6107,0.614,0.6118,0.6286,0.6336,0.6466,0.6496,0.6531,0.6558,0.6525,0.6665,0.6677,0.669,0.6736,0.6754,0.6546,0.6546,0.6546,0.6545,0,0.577,0.5847,0.5906,0.5994,0.6047,0.613,0.6168,0.622,0.6231,0.6264,0.6373,0.6433,0.6521,0.6553,0.6564,0.6685,0.6672,0.6657,0.6619,0.6708,0.6753,0.677,0.655,0.6549,0.6548,0.6548,0,0,0.589,0.5989,0.601,0.6052,0.6131,0.6193,0.6278,0.6362,0.6407,0.6472,0.6547,0.6659,0.6646,0.6696,0.6715,0.6774,0.6874,0.6752,0.6755,0.6776,0.7015,0.7029,0.7049,0.6874,0.6877,0.688,0.701,0,0.6004,0.6152,0.6175,0.6307,0.6381,0.6385,0.6459,0.6518,0.6551,0.6622,0.666,0.674,0.6715,0.6746,0.6805,0.6849,0.6923,0.684,0.6948,0.6952,0.6933,0.7071,0.7085,0.7205,0.7027,0.703,0.7032,0,0.6158,0.6224,0.6363,0.6434,0.6466,0.6532,0.6613,0.6678,0.6746,0.6767,0.6824,0.6835,0.6928,0.6883,0.7013,0.6956,0.7002,0.7031,0.7036,0.705,0.7,0.7093,0.7244,0.7263,0.7059,0.7057,0.7055,0,0.6236,0.636,0.646,0.6494,0.6579,0.6626,0.6664,0.6729,0.6779,0.685,0.6884,0.6965,0.7011,0.7076,0.7111,0.7075,0.724,0.7198,0.7264,0.7263,0.7301,0.7299,0.7466,0.7325,0.7324,0.7324,0.7324,0,0.6363,0.6449,0.6496,0.6558,0.6655,0.6682,0.6778,0.6816,0.6874,0.6946,0.6954,0.7022,0.7062,0.7137,0.7165,0.7271,0.7291,0.7313,0.7321,0.7315,0.7312,0.7348,0.7342,0.7329,0.7328,0.7327,0.7326,0,0.6468,0.6503,0.6612,0.6683,0.6703,0.6772,0.6834,0.6896,0.6929,0.702,0.7043,0.7096,0.7185,0.7225,0.7335,0.7354,0.7476,0.7476,0.7453,0.7456,0.7522,0.7516,0.772,0.7749,0.7585,0.7587,0.7588,0,0.6549,0.6615,0.6692,0.6739,0.6778,0.6854,0.6905,0.6935,0.6988,0.7071,0.7124,0.7212,0.7285,0.7428,0.7479,0.7564,0.7568,0.7633,0.7581,0.7574,0.7574,0.7571,0.758,0.7644,0.7646,0.7647,0.7648,0,0.669,0.6704,0.6775,0.6853,0.6912,0.6976,0.7038,0.7077,0.7117,0.7177,0.7267,0.7323,0.7435,0.7524,0.7613,0.7656,0.7661,0.7663,0.7684,0.7681,0.7666,0.7679,0.7483,0.7659,0.7658,0.7657,0.7657,0.7656,0.6788,0.6848,0.6912,0.6992,0.7041,0.7099,0.7161,0.7201,0.7276,0.7367,0.7381,0.7478,0.7548,0.7667,0.7713,0.7792,0.7777,0.7806,0.7814,0.7821,0.7827,0.765,0.7808,0.7808,0.7807,0.7807,0.7807,0,0.6933,0.6974,0.7047,0.7133,0.7196,0.719,0.726,0.7315,0.7399,0.7461,0.7532,0.7637,0.7724,0.7781,0.787,0.7923,0.7928,0.7946,0.7944,0.7955,0.7833,0.7808,0.7941,0.7941,0.7941,0.794,0.794,0.794,0.7016,0.7117,0.7139,0.7267,0.7308,0.7401,0.7441,0.7497,0.7547,0.7663,0.7734,0.7769,0.7832,0.7925,0.8007,0.8021,0.8056,0.8075,0.8091,0.7977,0.7963,0.795,0.7927,0.8082,0.8082,0.8206,0.8207,0.8208]},{"header":{"parameterUnit":"m.s-1","parameterCategory":1,"la1":30.2991,"la2":30.254,"lo1":-89.0895,"lo2":-89.0444,"dy":0.0017,"dx":0.0017,"nx":28,"ny":28,"refTime":"2025-08-14T09:00:00:Z","depth":0,"parameterNumber":3,"parameterNumberName":"V-component_of_WINDS"},"data":[0,0,0,0,0,0,0,0,0,0,0,0,0,0,0,0,0,0,0,0,0,0,0,0,0,0,0,0,0,0,0,0,0,0,0,0,0,0,0,0,0,0,0,0,0,0,0,0,0,0,0,0,0,0,0,0,0,0,-0.6827,-0.6828,0,-0.688,-0.6881,-0.6882,-0.691,-0.691,-0.691,-0.691,-0.6963,-0.6964,-0.6966,0,0,0,0,0,0,0,0,0,0,0,0,0,-0.6746,-0.6748,-0.6827,-0.6828,-0.6828,-0.688,-0.6881,-0.6882,-0.691,-0.691,-0.691,-0.691,-0.6963,-0.6964,-0.6966,0,0,0,0,0,0,0,0,0,0,0,0,0,-0.6789,-0.6748,-0.6827,-0.6849,-0.6851,-0.688,-0.6881,-0.6882,-0.691,-0.691,-0.691,-0.691,-0.6962,-0.6964,-0.6966,-0.6977,0,0,-0.6972,-0.6973,0,0,0,0,0,0,0,0,-0.6786,-0.6792,-0.6845,-0.6847,-0.685,-0.6889,-0.6872,-0.6914,-0.691,-0.6888,-0.691,-0.691,-0.6938,-0.6942,-0.6952,-0.6979,-0.6981,-0.6972,-0.6974,-0.6975,-0.6975,0,0,0,0,0,0,0,-0.6783,-0.6789,-0.6848,-0.6846,-0.6849,-0.6855,-0.6861,-0.688,-0.6912,-0.689,-0.6892,-0.6898,-0.694,-0.695,-0.6953,-0.6982,-0.6972,-0.6974,-0.6975,-0.6976,-0.7019,-0.7019,0,0,0,0,0,0,-0.6777,-0.6787,-0.6846,-0.685,-0.6818,-0.6856,-0.6863,-0.6876,-0.6912,-0.6917,-0.6898,-0.6899,-0.6946,-0.6951,-0.6955,-0.697,-0.6975,-0.6976,-0.6978,-0.702,-0.7019,-0.7019,0,0,0,0,0,0,-0.6775,-0.6782,-0.6844,-0.6819,-0.6827,-0.6858,-0.6872,-0.6877,-0.6888,-0.6918,-0.6923,-0.6903,-0.6947,-0.6953,-0.6971,-0.6972,-0.6977,-0.6979,-0.702,-0.702,-0.7019,-0.6998,0,0,0,0,0,0,-0.6773,-0.6781,-0.6787,-0.6819,-0.6829,-0.686,-0.6872,-0.6878,-0.6891,-0.6893,-0.6924,-0.6929,-0.6947,-0.6968,-0.6973,-0.6975,-0.6981,-0.702,-0.702,-0.7019,-0.6999,-0.6997,-0.6996,0,0,0,0,0,-0.677,-0.6778,-0.6787,-0.6794,-0.6836,-0.686,-0.6865,-0.6887,-0.6891,-0.6896,-0.6915,-0.6928,-0.6971,-0.697,-0.6976,-0.6978,-0.702,-0.702,-0.7019,-0.7,-0.6998,-0.6996,0,0,0,0,0,0,-0.6745,-0.6783,-0.6793,-0.6812,-0.6832,-0.6865,-0.6872,-0.6884,-0.6903,-0.6905,-0.693,-0.6936,-0.6952,-0.6967,-0.6965,-0.6989,-0.6996,-0.6997,-0.6979,-0.6978,-0.6976,-0.6972,-0.6982,0,0,0,0,0,-0.6742,-0.6759,-0.6791,-0.6805,-0.6815,-0.6841,-0.6852,-0.6867,-0.6889,-0.6898,-0.6918,-0.6939,-0.6957,-0.6968,-0.6986,-0.7001,-0.7007,-0.7005,-0.7004,-0.7002,-0.7003,-0.7011,-0.701,-0.7019,-0.7019,-0.7019,0,0,-0.6735,-0.6758,-0.6767,-0.68,-0.6818,-0.6834,-0.6848,-0.6865,-0.6877,-0.69,-0.6919,-0.6935,-0.6959,-0.6975,-0.6984,-0.6988,-0.7002,-0.7002,-0.7001,-0.7002,-0.7011,-0.701,-0.7009,-0.7019,-0.7019,-0.7019,0,0,-0.6732,-0.6751,-0.6764,-0.6781,-0.6808,-0.6826,-0.6828,-0.6859,-0.687,-0.6889,-0.6907,-0.6921,-0.6951,-0.6968,-0.698,-0.6981,-0.6993,-0.6986,-0.6978,-0.6985,-0.6985,-0.6984,-0.6984,-0.6983,-0.6986,-0.6986,-0.6986,0,-0.672,-0.6746,-0.6769,-0.6785,-0.6798,-0.682,-0.6833,-0.6848,-0.6879,-0.6887,-0.6892,-0.693,-0.6948,-0.6968,-0.6968,-0.6977,-0.6981,-0.6983,-0.6983,-0.6983,-0.6982,-0.6982,-0.6982,-0.6985,-0.6985,-0.6985,-0.6985,0,-0.673,-0.6748,-0.6755,-0.6785,-0.6799,-0.6813,-0.6837,-0.6848,-0.6861,-0.6878,-0.6896,-0.6918,-0.6941,-0.6947,-0.696,-0.6968,-0.697,-0.6978,-0.6986,-0.698,-0.698,-0.6981,-0.6984,-0.6984,-0.6984,-0.6985,0,0,-0.6714,-0.6755,-0.6757,-0.677,-0.6801,-0.6814,-0.6828,-0.6851,-0.686,-0.688,-0.6892,-0.6917,-0.6924,-0.6938,-0.6953,-0.6959,-0.6957,-0.6967,-0.6968,-0.6964,-0.6967,-0.696,-0.696,-0.6965,-0.6965,-0.6965,-0.6965,0,-0.6714,-0.6742,-0.6762,-0.6782,-0.6798,-0.6818,-0.683,-0.6849,-0.6865,-0.688,-0.6896,-0.6913,-0.6923,-0.6931,-0.6938,-0.6956,-0.6958,-0.6956,-0.6976,-0.6976,-0.6969,-0.696,-0.6954,-0.6952,-0.6965,-0.6965,-0.6965,0,-0.6719,-0.6739,-0.676,-0.6787,-0.6795,-0.6806,-0.6827,-0.6841,-0.6863,-0.6874,-0.6888,-0.6903,-0.6918,-0.6924,-0.6944,-0.6942,-0.6951,-0.6961,-0.6961,-0.6964,-0.697,-0.6962,-0.6952,-0.6951,-0.6966,-0.6966,-0.6965,0,-0.6704,-0.6736,-0.6752,-0.6763,-0.6795,-0.6802,-0.6816,-0.6838,-0.6849,-0.6868,-0.6875,-0.6895,-0.6906,-0.692,-0.6939,-0.6942,-0.6957,-0.6965,-0.6965,-0.6965,-0.6968,-0.6967,-0.6958,-0.6974,-0.6974,-0.6974,-0.6974,0,-0.6703,-0.6715,-0.6746,-0.6756,-0.677,-0.6792,-0.6805,-0.682,-0.6839,-0.6851,-0.6869,-0.688,-0.6905,-0.6919,-0.6934,-0.6948,-0.6952,-0.6961,-0.6964,-0.6959,-0.6958,-0.6965,-0.6966,-0.6974,-0.6974,-0.6974,-0.6974,0,-0.6689,-0.671,-0.6729,-0.6758,-0.6766,-0.6774,-0.6799,-0.6808,-0.6824,-0.684,-0.6845,-0.6869,-0.6886,-0.6907,-0.6931,-0.6941,-0.6953,-0.6959,-0.6946,-0.6948,-0.6947,-0.6946,-0.6942,-0.6942,-0.6958,-0.6958,-0.6957,0,-0.6687,-0.6696,-0.6726,-0.6736,-0.6749,-0.6765,-0.6777,-0.6799,-0.681,-0.6834,-0.6841,-0.686,-0.6876,-0.6902,-0.6921,-0.6939,-0.6945,-0.6942,-0.6948,-0.6942,-0.6944,-0.6943,-0.6944,-0.6941,-0.6941,-0.694,-0.694,0,-0.668,-0.669,-0.6707,-0.6727,-0.6741,-0.6757,-0.6775,-0.6782,-0.6807,-0.6818,-0.6836,-0.6848,-0.6872,-0.689,-0.691,-0.6923,-0.6935,-0.6938,-0.6939,-0.6934,-0.6925,-0.6929,-0.6941,-0.6938,-0.6938,-0.6939,-0.6939,-0.6939,-0.6672,-0.6681,-0.6703,-0.6721,-0.6736,-0.6751,-0.6762,-0.6779,-0.6794,-0.6816,-0.6827,-0.6844,-0.6864,-0.6892,-0.6904,-0.6917,-0.6922,-0.6923,-0.6924,-0.6924,-0.6922,-0.6923,-0.6921,-0.6921,-0.6921,-0.6921,-0.6921,0,-0.6666,-0.6681,-0.6697,-0.672,-0.6734,-0.6745,-0.6764,-0.6774,-0.6789,-0.6807,-0.6822,-0.6842,-0.6858,-0.6879,-0.6896,-0.6903,-0.6909,-0.6907,-0.6906,-0.6909,-0.6917,-0.6914,-0.6901,-0.6901,-0.6902,-0.6902,-0.6902,-0.6902,-0.6665,-0.668,-0.6692,-0.6715,-0.6729,-0.6747,-0.6757,-0.677,-0.6784,-0.6806,-0.682,-0.6833,-0.6851,-0.687,-0.6886,-0.6891,-0.6896,-0.6893,-0.6899,-0.6907,-0.6908,-0.691,-0.6908,-0.6894,-0.6894,-0.689,-0.689,-0.689]}]]